contact:dominique.lefevre@mio.osupytheas.fr, maurice.libes@osupytheas.fr, didier.mallarino@osupytheas.fr
Project:EMSO http://www.emso-fr.org/EMSO-France
Depth: 2436.0 m
Title:EMSO Ligure Ouest : Data MII capteur AQUADOPP
Date,Latitude,Longitude,X_East,Y_North,Z_Up,Amplitude_X,Amplitude_Y,Amplitude_Z,Batterie,SoundSpeed,Heading,Pitch,Roll,Pressure,TIS,Speed,Direction
, degrees North, degrees East, m.s-1, m.s-1,m.s-1, 1, 1, 1, Volt, m.s-1, degree, degree, degree, dbar, degree_C, m.s-1, degree
2021-09-27T00:04:03,42.805,6.029,0.014,0.003,-0.001,103.0,103.0,101.0,13.4,1505.2,331.6,-0.7,1.8,2470.658,13.28,0.014,77.9
2021-09-27T00:07:03,42.805,6.029,0.015,0.006,-0.001,102.0,102.0,102.0,13.4,1505.2,328.3,-0.8,1.8,2470.66,13.28,0.016,68.2
2021-09-27T00:10:03,42.805,6.029,0.03,-0.005,-0.002,104.0,101.0,101.0,13.4,1505.2,329.0,-0.7,1.9,2470.684,13.28,0.03,99.5
2021-09-27T00:13:03,42.805,6.029,0.038,-0.021,-0.007,103.0,102.0,101.0,13.3,1505.2,329.3,-0.8,1.8,2470.663,13.28,0.043,118.9
2021-09-27T00:16:03,42.805,6.029,0.022,-0.007,0.028,105.0,100.0,102.0,13.4,1505.2,328.2,-0.7,1.9,2470.647,13.28,0.023,107.6
2021-09-27T00:19:03,42.805,6.029,0.021,-0.012,-0.019,103.0,103.0,100.0,13.4,1505.2,327.3,-0.8,1.8,2470.665,13.28,0.024,119.7
2021-09-27T00:22:03,42.805,6.029,0.021,-0.009,0.008,102.0,102.0,101.0,13.3,1505.2,328.8,-0.7,1.8,2470.622,13.28,0.022,113.2
2021-09-27T00:25:03,42.805,6.029,0.024,-0.005,-0.02,102.0,102.0,102.0,13.3,1505.2,329.1,-0.8,1.8,2470.646,13.28,0.024,101.8
2021-09-27T00:28:03,42.805,6.029,0.028,0.0,-0.012,104.0,100.0,101.0,13.3,1505.2,329.4,-0.7,1.8,2470.633,13.28,0.028,90.0
2021-09-27T00:31:03,42.805,6.029,0.025,-0.001,0.003,103.0,102.0,101.0,13.4,1505.2,329.5,-0.8,1.8,2470.604,13.28,0.025,92.3
2021-09-27T00:34:03,42.805,6.029,0.025,-0.022,0.0,102.0,102.0,101.0,13.3,1505.2,327.6,-0.7,1.8,2470.649,13.28,0.033,131.3
2021-09-27T00:37:03,42.805,6.029,0.021,0.009,0.008,102.0,103.0,102.0,13.4,1505.2,327.9,-0.8,1.8,2470.636,13.28,0.022,66.8
2021-09-27T00:40:03,42.805,6.029,0.034,-0.026,-0.016,103.0,102.0,101.0,13.4,1505.2,329.9,-0.7,1.8,2470.625,13.28,0.042,127.4
2021-09-27T00:43:03,42.805,6.029,0.019,-0.013,-0.023,102.0,103.0,101.0,13.3,1505.2,327.7,-0.7,1.8,2470.636,13.28,0.023,124.4
2021-09-27T00:46:03,42.805,6.029,-0.007,0.008,0.01,102.0,102.0,101.0,13.3,1505.2,327.4,-0.8,1.8,2470.647,13.28,0.01,318.8
2021-09-27T00:49:03,42.805,6.029,0.027,0.008,0.017,102.0,102.0,102.0,13.4,1505.2,327.6,-0.7,1.8,2470.613,13.28,0.028,73.5
2021-09-27T00:52:03,42.805,6.029,0.023,-0.044,-0.043,102.0,102.0,102.0,13.4,1505.2,327.9,-0.8,1.9,2470.607,13.28,0.049,152.4
2021-09-27T00:55:03,42.805,6.029,0.013,-0.005,-0.019,103.0,102.0,101.0,13.4,1505.2,327.5,-0.7,1.8,2470.613,13.28,0.013,111.0
2021-09-27T00:58:03,42.805,6.029,-0.001,-0.01,-0.013,103.0,102.0,102.0,13.4,1505.2,329.1,-0.8,1.8,2470.619,13.28,0.01,185.7
2021-09-27T01:04:03,42.805,6.029,0.03,-0.012,-0.003,103.0,103.0,102.0,13.4,1505.2,330.3,-0.7,1.8,2470.67,13.28,0.032,111.8
2021-09-27T01:07:03,42.805,6.029,0.014,-0.013,-0.021,103.0,102.0,102.0,13.3,1505.2,329.0,-0.8,1.9,2470.621,13.28,0.019,132.9
2021-09-27T01:16:04,42.805,6.029,0.011,-0.002,-0.018,103.0,103.0,102.0,13.3,1505.2,327.7,-0.8,1.8,2470.639,13.28,0.011,100.3
2021-09-27T01:19:03,42.805,6.029,0.02,-0.015,0.022,103.0,102.0,101.0,13.3,1505.2,327.4,-0.8,1.8,2470.669,13.28,0.025,126.9
2021-09-27T01:22:03,42.805,6.029,0.026,0.0,0.02,102.0,102.0,102.0,13.4,1505.2,325.3,-0.7,1.8,2470.633,13.28,0.026,90.0
2021-09-27T01:25:03,42.805,6.029,0.028,-0.032,-0.044,103.0,105.0,101.0,13.3,1505.2,327.5,-0.7,1.9,2470.593,13.28,0.042,138.8
2021-09-27T01:28:03,42.805,6.029,0.034,-0.005,-0.016,102.0,103.0,101.0,13.3,1505.2,328.1,-0.7,1.8,2470.638,13.28,0.034,98.4
2021-09-27T01:31:03,42.805,6.029,0.017,-0.009,-0.007,101.0,101.0,102.0,13.3,1505.2,329.2,-0.7,1.8,2470.628,13.28,0.019,117.9
2021-09-27T01:34:03,42.805,6.029,0.024,-0.018,-0.014,102.0,103.0,101.0,13.4,1505.2,326.8,-0.7,1.8,2470.629,13.28,0.03,126.9
2021-09-27T01:37:03,42.805,6.029,0.014,-0.017,0.013,103.0,103.0,101.0,13.4,1505.2,326.9,-0.7,1.8,2470.615,13.28,0.022,140.5
2021-09-27T01:40:03,42.805,6.029,0.02,0.0,-0.008,104.0,103.0,102.0,13.3,1505.2,329.1,-0.8,1.8,2470.572,13.28,0.02,90.0
2021-09-27T01:43:03,42.805,6.029,0.03,-0.002,-0.01,104.0,103.0,101.0,13.4,1505.2,329.2,-0.8,1.9,2470.6,13.28,0.03,93.8
2021-09-27T01:46:03,42.805,6.029,0.013,-0.003,0.0,103.0,101.0,102.0,13.3,1505.2,327.1,-0.8,1.8,2470.597,13.28,0.013,103.0
2021-09-27T01:49:03,42.805,6.029,0.0,0.025,-0.003,103.0,102.0,102.0,13.4,1505.2,330.1,-0.8,1.8,2470.597,13.28,0.025,0.0
2021-09-27T01:52:03,42.805,6.029,0.016,-0.012,-0.021,102.0,102.0,101.0,13.4,1505.2,330.1,-0.7,1.8,2470.592,13.28,0.02,126.9
2021-09-27T01:55:03,42.805,6.029,0.03,-0.003,0.013,102.0,104.0,102.0,13.4,1505.2,331.4,-0.7,1.8,2470.574,13.28,0.03,95.7
2021-09-27T01:58:03,42.805,6.029,0.007,0.003,0.041,103.0,104.0,101.0,13.3,1505.2,329.7,-0.7,1.8,2470.588,13.28,0.007,66.8
2021-09-27T02:04:03,42.805,6.029,0.03,-0.01,-0.008,101.0,101.0,101.0,13.4,1505.2,331.9,-0.8,1.8,2470.587,13.28,0.031,108.4
2021-09-27T02:07:03,42.805,6.029,0.029,-0.026,-0.018,102.0,104.0,101.0,13.4,1505.2,328.4,-0.8,1.8,2470.636,13.28,0.038,131.9
2021-09-27T02:10:03,42.805,6.029,0.029,0.014,-0.003,103.0,102.0,101.0,13.4,1505.2,329.3,-0.8,1.8,2470.616,13.28,0.032,64.2
2021-09-27T02:13:03,42.805,6.029,0.032,-0.002,0.003,103.0,104.0,101.0,13.4,1505.2,326.6,-0.7,1.8,2470.598,13.28,0.032,93.6
2021-09-27T02:16:03,42.805,6.029,0.027,-0.006,-0.011,103.0,103.0,101.0,13.4,1505.2,327.9,-0.8,1.8,2470.588,13.28,0.027,102.5
2021-09-27T02:19:03,42.805,6.029,0.022,-0.004,-0.033,103.0,102.0,101.0,13.4,1505.2,330.1,-0.7,1.8,2470.566,13.28,0.022,100.3
2021-09-27T02:22:03,42.805,6.029,0.0,0.004,-0.018,102.0,103.0,101.0,13.4,1505.2,329.0,-0.8,1.8,2470.615,13.28,0.004,0.0
2021-09-27T02:25:03,42.805,6.029,0.015,0.007,0.003,101.0,103.0,102.0,13.3,1505.2,329.7,-0.8,1.8,2470.589,13.28,0.016,65.0
2021-09-27T02:28:03,42.805,6.029,0.014,0.011,-0.006,104.0,102.0,100.0,13.4,1505.2,329.4,-0.8,1.8,2470.578,13.28,0.017,51.8
2021-09-27T02:31:03,42.805,6.029,0.027,0.003,0.015,102.0,103.0,101.0,13.4,1505.2,326.4,-0.8,1.8,2470.567,13.28,0.027,83.7
2021-09-27T02:34:03,42.805,6.029,0.032,-0.009,0.014,103.0,103.0,101.0,13.4,1505.2,326.2,-0.7,1.8,2470.585,13.28,0.033,105.7
2021-09-27T02:37:03,42.805,6.029,0.026,0.004,-0.002,102.0,102.0,102.0,13.4,1505.2,330.9,-0.8,1.8,2470.527,13.28,0.026,81.3
2021-09-27T02:40:03,42.805,6.029,0.014,0.0,0.0,102.0,101.0,101.0,13.4,1505.2,329.6,-0.7,1.8,2470.588,13.28,0.014,90.0
2021-09-27T02:43:03,42.805,6.029,0.032,-0.014,-0.019,102.0,103.0,101.0,13.4,1505.2,331.1,-0.7,1.8,2470.572,13.28,0.034,113.6
2021-09-27T02:46:03,42.805,6.029,0.029,-0.006,-0.01,104.0,103.0,102.0,13.4,1505.2,327.4,-0.7,1.8,2470.582,13.28,0.029,101.7
2021-09-27T02:49:03,42.805,6.029,0.01,-0.008,-0.007,103.0,100.0,102.0,13.4,1505.2,327.2,-0.7,1.8,2470.552,13.28,0.012,128.7
2021-09-27T02:52:03,42.805,6.029,0.029,0.015,0.002,102.0,103.0,102.0,13.4,1505.2,328.3,-0.8,1.8,2470.552,13.28,0.032,62.6
2021-09-27T02:55:03,42.805,6.029,0.017,0.007,-0.013,103.0,102.0,102.0,13.4,1505.2,330.8,-0.8,1.8,2470.547,13.28,0.018,67.6
2021-09-27T02:58:03,42.805,6.029,0.018,-0.006,0.019,103.0,103.0,102.0,13.4,1505.2,330.5,-0.8,1.8,2470.539,13.28,0.018,108.4
2021-09-27T03:04:03,42.805,6.029,0.014,-0.003,-0.012,102.0,101.0,102.0,13.4,1505.2,331.6,-0.7,1.8,2470.584,13.28,0.014,102.1
2021-09-27T03:07:03,42.805,6.029,0.031,-0.012,0.016,103.0,103.0,101.0,13.3,1505.2,331.0,-0.8,1.8,2470.6,13.28,0.033,111.2
2021-09-27T03:10:03,42.805,6.029,0.02,0.001,0.015,102.0,104.0,101.0,13.3,1505.2,327.4,-0.7,1.8,2470.592,13.28,0.02,87.1
2021-09-27T03:13:03,42.805,6.029,0.032,-0.007,0.007,102.0,103.0,101.0,13.3,1505.2,325.6,-0.8,1.8,2470.587,13.28,0.032,102.3
2021-09-27T03:16:03,42.805,6.029,0.032,-0.002,-0.005,103.0,102.0,101.0,13.3,1505.2,328.4,-0.7,1.8,2470.576,13.28,0.032,93.6
2021-09-27T03:19:03,42.805,6.029,0.03,-0.011,0.009,103.0,103.0,101.0,13.4,1505.2,331.2,-0.8,1.9,2470.551,13.28,0.031,110.1
2021-09-27T03:22:03,42.805,6.029,-0.006,0.0,-0.018,104.0,102.0,101.0,13.3,1505.2,326.4,-0.7,1.9,2470.532,13.28,0.006,270.0
2021-09-27T03:25:03,42.805,6.029,0.039,0.005,0.007,103.0,103.0,102.0,13.4,1505.2,327.0,-0.8,1.9,2470.562,13.28,0.039,82.7
2021-09-27T03:28:03,42.805,6.029,0.023,-0.018,-0.008,103.0,104.0,101.0,13.4,1505.2,330.3,-0.8,1.9,2470.614,13.28,0.029,128.0
2021-09-27T03:31:03,42.805,6.029,0.02,-0.011,0.004,102.0,103.0,102.0,13.4,1505.2,326.5,-0.8,1.8,2470.554,13.28,0.022,118.8
2021-09-27T03:34:03,42.805,6.029,0.029,0.002,-0.002,102.0,103.0,101.0,13.4,1505.2,327.2,-0.8,1.8,2470.547,13.28,0.029,86.1
2021-09-27T03:37:03,42.805,6.029,0.036,-0.007,0.0,103.0,102.0,102.0,13.4,1505.2,329.9,-0.8,1.8,2470.572,13.28,0.036,101.0
2021-09-27T03:40:03,42.805,6.029,0.025,0.025,-0.002,102.0,103.0,101.0,13.4,1505.2,328.6,-0.8,1.8,2470.587,13.28,0.035,45.0
2021-09-27T03:43:03,42.805,6.029,0.011,-0.003,-0.001,102.0,103.0,102.0,13.3,1505.2,325.3,-0.7,1.9,2470.572,13.28,0.011,105.3
2021-09-27T03:46:03,42.805,6.029,0.018,-0.005,-0.005,101.0,102.0,102.0,13.3,1505.2,325.5,-0.7,1.8,2470.545,13.28,0.018,105.5
2021-09-27T03:49:03,42.805,6.029,0.021,0.0,0.008,102.0,105.0,101.0,13.4,1505.2,329.6,-0.7,1.8,2470.551,13.28,0.021,90.0
2021-09-27T03:52:03,42.805,6.029,0.016,-0.005,-0.001,103.0,102.0,101.0,13.4,1505.2,331.0,-0.8,1.8,2470.554,13.28,0.016,107.4
2021-09-27T03:55:03,42.805,6.029,0.034,-0.013,-0.012,103.0,104.0,102.0,13.4,1505.2,327.2,-0.8,1.8,2470.547,13.28,0.036,110.9
2021-09-27T03:58:03,42.805,6.029,0.03,-0.004,0.011,102.0,104.0,101.0,13.3,1505.2,328.0,-0.7,1.8,2470.589,13.28,0.03,97.6
2021-09-27T04:04:03,42.805,6.029,0.019,-0.006,-0.016,103.0,102.0,101.0,13.3,1505.2,326.1,-0.7,1.8,2470.584,13.28,0.019,107.5
2021-09-27T04:07:03,42.805,6.029,0.019,0.01,-0.027,103.0,102.0,101.0,13.4,1505.2,328.9,-0.8,1.9,2470.577,13.28,0.021,62.2
2021-09-27T04:10:03,42.805,6.029,0.026,-0.005,-0.025,102.0,102.0,102.0,13.3,1505.2,327.8,-0.8,1.8,2470.605,13.28,0.026,100.9
2021-09-27T04:13:03,42.805,6.029,0.022,-0.005,0.016,102.0,106.0,100.0,13.4,1505.2,328.0,-0.8,1.8,2470.593,13.28,0.022,102.8
2021-09-27T04:16:03,42.805,6.029,0.024,0.007,0.001,103.0,103.0,101.0,13.4,1505.2,328.0,-0.7,1.8,2470.582,13.28,0.025,73.7
2021-09-27T04:19:03,42.805,6.029,0.035,0.003,0.002,101.0,102.0,102.0,13.4,1505.2,329.3,-0.8,1.9,2470.547,13.28,0.035,85.1
2021-09-27T04:22:03,42.805,6.029,0.023,-0.014,-0.034,102.0,102.0,101.0,13.4,1505.2,330.3,-0.8,1.8,2470.573,13.28,0.026,121.3
2021-09-27T04:25:03,42.805,6.029,0.013,-0.007,-0.012,101.0,102.0,101.0,13.3,1505.2,329.5,-0.7,1.8,2470.604,13.28,0.014,118.3
2021-09-27T04:28:03,42.805,6.029,0.008,0.0,0.008,102.0,103.0,101.0,13.3,1505.2,330.1,-0.8,1.8,2470.543,13.28,0.008,90.0
2021-09-27T04:31:03,42.805,6.029,0.024,0.014,-0.011,103.0,103.0,101.0,13.3,1505.2,326.2,-0.7,1.8,2470.591,13.28,0.027,59.7
2021-09-27T04:34:03,42.805,6.029,0.027,0.001,0.001,102.0,103.0,101.0,13.4,1505.2,328.3,-0.7,1.8,2470.591,13.28,0.027,87.9
2021-09-27T04:37:03,42.805,6.029,0.007,0.006,0.002,103.0,103.0,101.0,13.4,1505.2,329.0,-0.8,1.8,2470.54,13.28,0.009,49.4
2021-09-27T04:40:03,42.805,6.029,0.038,-0.003,-0.018,103.0,103.0,101.0,13.4,1505.2,325.4,-0.7,1.8,2470.564,13.28,0.038,94.5
2021-09-27T04:43:03,42.805,6.029,0.029,0.002,-0.024,102.0,102.0,101.0,13.4,1505.2,326.6,-0.8,1.8,2470.564,13.28,0.029,86.1
2021-09-27T04:46:03,42.805,6.029,0.053,0.0,0.003,102.0,102.0,103.0,13.4,1505.2,328.3,-0.8,1.8,2470.538,13.28,0.053,90.0
2021-09-27T04:49:03,42.805,6.029,0.032,0.004,0.0,102.0,103.0,102.0,13.3,1505.2,327.8,-0.7,1.8,2470.542,13.28,0.032,82.9
2021-09-27T04:52:03,42.805,6.029,0.042,-0.003,0.0,102.0,103.0,101.0,13.4,1505.2,326.8,-0.8,1.8,2470.557,13.28,0.042,94.1
2021-09-27T04:55:03,42.805,6.029,0.038,-0.004,-0.011,103.0,103.0,101.0,13.4,1505.2,326.6,-0.8,1.9,2470.515,13.28,0.038,96.0
2021-09-27T04:58:03,42.805,6.029,0.045,0.003,0.032,103.0,103.0,102.0,13.3,1505.2,327.2,-0.7,1.9,2470.56,13.28,0.045,86.2
2021-09-27T05:04:03,42.805,6.029,0.003,0.013,0.007,102.0,102.0,101.0,13.4,1505.2,326.8,-0.7,1.8,2470.562,13.28,0.013,13.0
2021-09-27T05:07:03,42.805,6.029,0.015,0.001,-0.001,103.0,103.0,101.0,13.4,1505.2,331.4,-0.7,1.8,2470.556,13.28,0.015,86.2
2021-09-27T05:10:03,42.805,6.029,0.013,0.019,0.029,102.0,104.0,101.0,13.4,1505.2,326.7,-0.7,1.8,2470.624,13.28,0.023,34.4
2021-09-27T05:13:03,42.805,6.029,0.017,0.013,0.013,104.0,102.0,102.0,13.4,1505.2,329.7,-0.8,1.8,2470.553,13.28,0.021,52.6
2021-09-27T05:16:03,42.805,6.029,0.028,0.007,-0.012,104.0,103.0,101.0,13.4,1505.2,329.9,-0.8,1.8,2470.552,13.28,0.028,76.0
2021-09-27T05:19:03,42.805,6.029,0.038,-0.004,-0.011,101.0,103.0,101.0,13.4,1505.2,327.7,-0.7,1.8,2470.574,13.28,0.038,96.0
2021-09-27T05:22:03,42.805,6.029,0.037,0.015,0.02,103.0,104.0,101.0,13.4,1505.2,325.7,-0.8,1.8,2470.59,13.28,0.039,67.9
2021-09-27T05:25:03,42.805,6.029,0.022,-0.013,-0.043,103.0,101.0,102.0,13.4,1505.2,328.6,-0.7,1.8,2470.527,13.28,0.025,120.6
2021-09-27T05:28:03,42.805,6.029,0.018,0.011,0.02,101.0,102.0,102.0,13.3,1505.2,330.8,-0.8,1.8,2470.553,13.28,0.021,58.6
2021-09-27T05:31:03,42.805,6.029,0.014,-0.001,-0.01,103.0,101.0,102.0,13.4,1505.2,331.2,-0.7,1.8,2470.518,13.28,0.014,94.1
2021-09-27T05:34:03,42.805,6.029,0.021,-0.017,-0.015,101.0,102.0,102.0,13.4,1505.2,331.3,-0.8,1.8,2470.547,13.28,0.027,129.0
2021-09-27T05:37:03,42.805,6.029,0.03,-0.012,0.018,102.0,102.0,102.0,13.4,1505.2,330.1,-0.7,1.8,2470.52,13.28,0.032,111.8
2021-09-27T05:40:03,42.805,6.029,0.023,0.01,-0.001,102.0,102.0,102.0,13.4,1505.2,327.3,-0.7,1.8,2470.571,13.28,0.025,66.5
2021-09-27T05:43:03,42.805,6.029,0.018,-0.011,0.003,103.0,102.0,102.0,13.4,1505.2,325.9,-0.8,1.8,2470.526,13.28,0.021,121.4
2021-09-27T05:46:03,42.805,6.029,0.034,0.005,0.013,104.0,103.0,101.0,13.4,1505.2,326.4,-0.7,1.8,2470.558,13.28,0.034,81.6
2021-09-27T05:49:03,42.805,6.029,0.031,0.005,0.021,104.0,102.0,102.0,13.4,1505.2,329.8,-0.7,1.8,2470.554,13.28,0.031,80.8
2021-09-27T05:52:03,42.805,6.029,0.03,-0.005,0.003,103.0,102.0,102.0,13.3,1505.2,327.5,-0.7,1.8,2470.547,13.28,0.03,99.5
2021-09-27T05:55:03,42.805,6.029,0.021,0.007,0.004,103.0,103.0,101.0,13.4,1505.2,328.9,-0.8,1.8,2470.55,13.28,0.022,71.6
2021-09-27T05:58:03,42.805,6.029,0.034,-0.005,-0.03,101.0,104.0,102.0,13.3,1505.2,330.4,-0.7,1.8,2470.545,13.28,0.034,98.4
2021-09-27T06:04:03,42.805,6.029,0.028,-0.008,-0.009,103.0,103.0,102.0,13.4,1505.2,328.3,-0.8,1.8,2470.55,13.28,0.029,105.9
2021-09-27T06:07:03,42.805,6.029,0.027,0.002,0.02,102.0,103.0,101.0,13.3,1505.2,328.2,-0.8,1.8,2470.561,13.28,0.027,85.8
2021-09-27T06:10:03,42.805,6.029,0.057,-0.021,0.016,103.0,102.0,101.0,13.4,1505.2,329.0,-0.7,1.9,2470.581,13.28,0.06,110.2
2021-09-27T06:13:03,42.805,6.029,0.045,-0.006,-0.035,102.0,103.0,101.0,13.3,1505.2,328.1,-0.7,1.8,2470.527,13.28,0.045,97.6
2021-09-27T06:16:03,42.805,6.029,0.04,-0.004,-0.004,103.0,102.0,101.0,13.3,1505.2,326.7,-0.8,1.8,2470.544,13.28,0.04,95.7
2021-09-27T06:19:03,42.805,6.029,0.057,-0.023,0.008,103.0,102.0,101.0,13.4,1505.2,325.3,-0.7,1.8,2470.537,13.28,0.061,112.0
2021-09-27T06:22:03,42.805,6.029,0.017,0.0,-0.016,104.0,102.0,100.0,13.4,1505.2,325.3,-0.8,1.8,2470.572,13.28,0.017,90.0
2021-09-27T06:25:03,42.805,6.029,0.037,0.004,-0.001,102.0,102.0,102.0,13.4,1505.2,325.5,-0.8,1.8,2470.528,13.28,0.037,83.8
2021-09-27T06:28:03,42.805,6.029,0.042,0.0,-0.009,102.0,103.0,102.0,13.4,1505.2,325.8,-0.7,1.8,2470.537,13.28,0.042,90.0
2021-09-27T06:31:03,42.805,6.029,0.025,-0.003,-0.009,103.0,103.0,100.0,13.4,1505.2,329.5,-0.8,1.9,2470.509,13.28,0.025,96.8
2021-09-27T06:34:03,42.805,6.029,0.022,0.008,-0.005,102.0,103.0,101.0,13.3,1505.2,331.1,-0.8,1.8,2470.577,13.28,0.023,70.0
2021-09-27T06:37:03,42.805,6.029,0.004,-0.011,-0.027,103.0,103.0,101.0,13.4,1505.2,331.0,-0.8,1.9,2470.495,13.28,0.011,160.0
2021-09-27T06:40:03,42.805,6.029,0.024,-0.009,-0.029,102.0,103.0,102.0,13.4,1505.2,328.3,-0.7,1.8,2470.542,13.28,0.025,110.6
2021-09-27T06:43:03,42.805,6.029,0.016,0.019,-0.01,103.0,104.0,101.0,13.4,1505.2,328.2,-0.7,1.8,2470.542,13.28,0.024,40.1
2021-09-27T06:46:03,42.805,6.029,0.034,-0.007,0.005,104.0,103.0,101.0,13.4,1505.2,328.3,-0.7,1.8,2470.505,13.28,0.034,101.6
2021-09-27T06:49:03,42.805,6.029,0.03,-0.004,-0.001,102.0,102.0,101.0,13.4,1505.2,331.1,-0.7,1.9,2470.54,13.28,0.03,97.6
2021-09-27T06:52:03,42.805,6.029,0.033,-0.008,-0.012,103.0,102.0,101.0,13.4,1505.2,331.4,-0.7,1.8,2470.566,13.28,0.033,103.6
2021-09-27T06:55:03,42.805,6.029,0.048,0.0,-0.004,104.0,102.0,101.0,13.3,1505.2,327.4,-0.8,1.8,2470.528,13.28,0.048,90.0
2021-09-27T06:58:03,42.805,6.029,0.035,-0.013,-0.02,102.0,102.0,102.0,13.4,1505.2,329.8,-0.8,1.8,2470.535,13.28,0.037,110.4
2021-09-27T07:01:03,42.805,6.029,0.009,-0.01,-0.018,103.0,102.0,101.0,13.3,1505.2,325.8,-0.8,1.8,2470.54,13.28,0.013,138.0
2021-09-27T07:04:03,42.805,6.029,0.044,0.0,0.023,102.0,102.0,101.0,13.4,1505.2,330.3,-0.7,1.9,2470.561,13.28,0.044,90.0
2021-09-27T07:07:03,42.805,6.029,0.051,-0.013,-0.033,102.0,103.0,101.0,13.4,1505.2,331.2,-0.7,1.8,2470.561,13.28,0.052,104.3
2021-09-27T07:10:03,42.805,6.029,0.042,0.0,0.011,104.0,103.0,101.0,13.4,1505.2,331.2,-0.7,1.8,2470.532,13.28,0.042,90.0
2021-09-27T07:13:03,42.805,6.029,0.038,0.004,-0.012,102.0,102.0,101.0,13.4,1505.2,326.9,-0.8,1.8,2470.567,13.28,0.038,84.0
2021-09-27T07:16:03,42.805,6.029,0.035,0.004,0.019,101.0,103.0,100.0,13.3,1505.2,329.3,-0.8,1.8,2470.598,13.28,0.035,83.5
2021-09-27T07:19:03,42.805,6.029,0.042,-0.012,-0.002,102.0,103.0,101.0,13.4,1505.2,325.7,-0.7,1.8,2470.564,13.28,0.043,105.9
2021-09-27T07:22:03,42.805,6.029,0.036,-0.007,0.0,103.0,102.0,101.0,13.4,1505.2,327.7,-0.8,1.9,2470.604,13.28,0.036,101.0
2021-09-27T07:25:03,42.805,6.029,0.043,-0.008,0.008,103.0,103.0,100.0,13.3,1505.2,330.4,-0.7,1.8,2470.544,13.28,0.043,100.5
2021-09-27T07:28:03,42.805,6.029,0.045,-0.011,-0.019,103.0,102.0,102.0,13.3,1505.2,328.7,-0.7,1.8,2470.588,13.28,0.046,103.7
2021-09-27T07:31:03,42.805,6.029,0.018,0.013,0.012,102.0,101.0,101.0,13.3,1505.2,331.3,-0.7,1.8,2470.586,13.28,0.022,54.2
2021-09-27T07:34:03,42.805,6.029,0.026,0.007,0.016,102.0,102.0,101.0,13.3,1505.2,325.6,-0.7,1.8,2470.589,13.28,0.026,74.9
2021-09-27T07:37:03,42.805,6.029,0.031,-0.014,0.013,102.0,101.0,101.0,13.3,1505.2,329.3,-0.7,1.8,2470.54,13.28,0.034,114.3
2021-09-27T07:40:03,42.805,6.029,0.026,-0.018,0.001,103.0,101.0,101.0,13.4,1505.2,330.8,-0.8,1.8,2470.564,13.28,0.031,124.7
2021-09-27T07:43:03,42.805,6.029,0.024,0.0,0.016,102.0,102.0,102.0,13.4,1505.2,328.3,-0.8,1.8,2470.575,13.28,0.024,90.0
2021-09-27T07:46:03,42.805,6.029,0.019,-0.011,0.005,102.0,103.0,101.0,13.4,1505.2,329.3,-0.7,1.8,2470.585,13.28,0.021,120.1
2021-09-27T07:49:03,42.805,6.029,0.047,-0.004,0.009,102.0,103.0,101.0,13.4,1505.2,330.7,-0.8,1.8,2470.574,13.28,0.047,94.9
2021-09-27T07:52:03,42.805,6.029,0.021,-0.014,-0.022,102.0,103.0,101.0,13.4,1505.2,330.3,-0.7,1.8,2470.592,13.28,0.025,123.7
2021-09-27T07:55:03,42.805,6.029,0.022,-0.005,0.014,103.0,101.0,101.0,13.3,1505.2,326.9,-0.7,1.8,2470.583,13.28,0.022,102.8
2021-09-27T07:58:03,42.805,6.029,0.036,-0.002,-0.007,102.0,103.0,100.0,13.3,1505.2,329.7,-0.7,1.8,2470.562,13.28,0.036,93.2
2021-09-27T08:04:03,42.805,6.029,0.031,0.003,-0.034,102.0,102.0,102.0,13.4,1505.2,327.3,-0.8,1.8,2470.64,13.28,0.031,84.5
2021-09-27T08:07:03,42.805,6.029,0.018,0.008,-0.009,103.0,102.0,101.0,13.4,1505.2,327.0,-0.8,1.9,2470.647,13.28,0.019,66.0
2021-09-27T08:10:03,42.805,6.029,0.03,-0.004,-0.023,102.0,103.0,101.0,13.4,1505.2,325.8,-0.8,1.8,2470.671,13.28,0.03,97.6
2021-09-27T08:13:03,42.805,6.029,0.023,0.017,0.016,103.0,105.0,100.0,13.4,1505.2,329.3,-0.8,1.8,2470.64,13.28,0.028,53.5
2021-09-27T08:16:03,42.805,6.029,0.022,0.001,-0.022,102.0,103.0,101.0,13.4,1505.2,328.8,-0.8,1.9,2470.637,13.28,0.022,87.4
2021-09-27T08:19:03,42.805,6.029,0.032,-0.009,0.012,104.0,104.0,100.0,13.4,1505.2,331.4,-0.7,1.8,2470.665,13.28,0.033,105.7
2021-09-27T08:22:03,42.805,6.029,0.011,-0.022,-0.021,104.0,103.0,101.0,13.4,1505.2,328.4,-0.8,1.8,2470.605,13.28,0.024,153.4
2021-09-27T08:25:03,42.805,6.029,0.023,0.008,0.016,103.0,103.0,101.0,13.4,1505.2,330.3,-0.8,1.8,2470.614,13.28,0.024,70.8
2021-09-27T08:28:03,42.805,6.029,0.036,0.007,0.022,104.0,103.0,101.0,13.4,1505.2,330.8,-0.8,1.8,2470.621,13.28,0.036,79.0
2021-09-27T08:31:03,42.805,6.029,0.026,0.02,-0.005,103.0,104.0,101.0,13.3,1505.2,325.8,-0.7,1.8,2470.671,13.28,0.032,52.4
2021-09-27T08:34:03,42.805,6.029,0.017,-0.002,-0.015,105.0,104.0,102.0,13.4,1505.2,327.6,-0.8,1.8,2470.628,13.28,0.017,96.7
2021-09-27T08:37:03,42.805,6.029,0.019,0.005,0.013,103.0,104.0,102.0,13.4,1505.2,329.7,-0.8,1.8,2470.603,13.28,0.019,75.3
2021-09-27T08:40:03,42.805,6.029,0.035,-0.009,-0.043,104.0,104.0,101.0,13.4,1505.2,328.1,-0.8,1.8,2470.618,13.28,0.036,104.4
2021-09-27T08:43:03,42.805,6.029,0.049,-0.007,-0.021,104.0,104.0,102.0,13.4,1505.2,328.9,-0.8,1.8,2470.638,13.28,0.049,98.1
2021-09-27T08:46:03,42.805,6.029,0.037,0.015,0.017,103.0,103.0,101.0,13.4,1505.2,328.5,-0.8,1.8,2470.62,13.28,0.039,67.9
2021-09-27T08:49:03,42.805,6.029,0.034,0.0,0.007,103.0,103.0,102.0,13.4,1505.2,329.4,-0.7,1.8,2470.605,13.28,0.034,90.0
2021-09-27T08:52:03,42.805,6.029,0.04,-0.03,-0.022,102.0,103.0,102.0,13.4,1505.2,325.9,-0.8,1.8,2470.61,13.28,0.05,126.9
2021-09-27T08:55:03,42.805,6.029,0.053,-0.016,0.005,104.0,104.0,102.0,13.4,1505.2,325.8,-0.8,1.8,2470.593,13.28,0.055,106.8
2021-09-27T08:58:03,42.805,6.029,0.037,-0.024,-0.022,104.0,103.0,102.0,13.4,1505.2,326.2,-0.8,1.8,2470.607,13.28,0.044,123.0
2021-09-27T09:04:03,42.805,6.029,0.041,-0.017,0.008,102.0,102.0,102.0,13.4,1505.2,326.6,-0.7,1.8,2470.659,13.28,0.044,112.5
2021-09-27T09:07:03,42.805,6.029,0.037,-0.011,0.004,102.0,103.0,104.0,13.3,1505.2,331.2,-0.7,1.8,2470.675,13.28,0.038,106.6
2021-09-27T09:10:03,42.805,6.029,0.02,0.009,-0.016,103.0,103.0,101.0,13.4,1505.2,331.1,-0.7,1.8,2470.706,13.28,0.021,65.8
2021-09-27T09:13:03,42.805,6.029,0.026,-0.008,0.01,102.0,102.0,102.0,13.4,1505.2,329.1,-0.7,1.8,2470.638,13.28,0.027,107.1
2021-09-27T09:16:03,42.805,6.029,0.033,0.003,0.011,103.0,102.0,101.0,13.3,1505.2,327.3,-0.8,1.8,2470.665,13.28,0.033,84.8
2021-09-27T09:19:03,42.805,6.029,0.02,0.01,0.004,102.0,103.0,102.0,13.4,1505.2,326.7,-0.8,1.8,2470.661,13.28,0.022,63.4
2021-09-27T09:22:03,42.805,6.029,0.044,-0.017,0.02,103.0,102.0,102.0,13.3,1505.2,328.1,-0.8,1.8,2470.633,13.28,0.047,111.1
2021-09-27T09:25:03,42.805,6.029,0.054,0.0,0.027,102.0,102.0,102.0,13.4,1505.2,328.1,-0.7,1.8,2470.672,13.28,0.053,90.0
2021-09-27T09:28:03,42.805,6.029,0.024,-0.001,0.024,103.0,103.0,101.0,13.4,1505.2,327.1,-0.7,1.8,2470.617,13.28,0.024,92.4
2021-09-27T09:31:03,42.805,6.029,0.018,-0.001,-0.015,102.0,102.0,102.0,13.3,1505.2,325.3,-0.7,1.8,2470.673,13.28,0.018,93.2
2021-09-27T09:34:03,42.805,6.029,0.011,0.002,-0.071,103.0,103.0,100.0,13.3,1505.2,325.5,-0.8,1.8,2470.648,13.28,0.011,79.7
2021-09-27T09:37:03,42.805,6.029,0.033,0.0,0.018,107.0,102.0,102.0,13.4,1505.2,326.4,-0.8,1.8,2470.646,13.28,0.033,90.0
2021-09-27T09:40:03,42.805,6.029,0.04,-0.006,0.006,102.0,104.0,102.0,13.4,1505.2,329.4,-0.8,1.8,2470.684,13.28,0.04,98.5
2021-09-27T09:43:03,42.805,6.029,0.027,-0.015,0.002,103.0,103.0,101.0,13.4,1505.2,329.3,-0.7,1.8,2470.632,13.28,0.03,119.1
2021-09-27T09:46:03,42.805,6.029,0.02,-0.006,-0.015,102.0,103.0,102.0,13.4,1505.2,331.3,-0.7,1.8,2470.634,13.28,0.02,106.7
2021-09-27T09:49:03,42.805,6.029,0.043,-0.008,-0.001,105.0,103.0,101.0,13.4,1505.2,331.3,-0.8,1.8,2470.643,13.28,0.043,100.5
2021-09-27T09:52:03,42.805,6.029,0.044,-0.021,0.0,103.0,102.0,102.0,13.4,1505.2,327.8,-0.7,1.8,2470.657,13.28,0.048,115.5
2021-09-27T09:55:03,42.805,6.029,0.04,0.003,0.018,105.0,104.0,101.0,13.4,1505.2,328.8,-0.7,1.8,2470.683,13.28,0.04,85.7
2021-09-27T09:58:03,42.805,6.029,0.046,0.0,0.0,103.0,102.0,102.0,13.4,1505.2,326.2,-0.8,1.8,2470.67,13.28,0.046,90.0
2021-09-27T10:04:03,42.805,6.029,0.022,0.017,0.008,103.0,104.0,101.0,13.4,1505.2,329.3,-0.8,1.8,2470.697,13.28,0.027,52.3
2021-09-27T10:07:03,42.805,6.029,0.037,-0.005,-0.017,102.0,103.0,102.0,13.4,1505.2,326.1,-0.8,1.8,2470.707,13.28,0.037,97.7